ELY316 EGLL-LLBG

Flight info

Callsign ELY316
Flight time N/A
Altitude 35000
Route DET L6 DVR UL9 KONAN DCT KOK DCT BITBU DCT BABEG DCT KONIN DCT ERKIR DCT DEGUM DCT ELTIB DCT VRANA DCT POD DCT RINAV DCT BONZI DCT BITLA DCT AKINA DCT VANZA DCT PIKOG L609 ZUKKO
Aircraft B772/H-SDE2E3FGHIJ5LORVWXY/LB1D1

Departure

Time N/A
Airport London Heathrow Airport (EGLL)

Arrival

Time 2026-05-06 07:51
Airport Ben Gurion International Airport (LLBG)
Time Latitude Longitude Altitude Speed Heading
2026-05-06 07:26 33.50735 32.38610 37086 ft 532 kts 126°
2026-05-06 07:26 33.48696 32.42375 37093 ft 532 kts 126°
2026-05-06 07:27 33.44675 32.49785 37090 ft 532 kts 126°
2026-05-06 07:27 33.40634 32.57215 37090 ft 532 kts 126°
2026-05-06 07:28 33.36593 32.64630 37084 ft 532 kts 127°
2026-05-06 07:28 33.30556 32.75681 37091 ft 531 kts 127°
2026-05-06 07:29 33.28522 32.79396 36559 ft 537 kts 127°
2026-05-06 07:29 33.26470 32.83136 35875 ft 537 kts 126°
2026-05-06 07:29 33.24424 32.86868 35130 ft 537 kts 126°
2026-05-06 07:29 33.22372 32.90606 34335 ft 538 kts 126°
2026-05-06 07:30 33.20319 32.94341 33405 ft 540 kts 126°
2026-05-06 07:30 33.18254 32.98097 32499 ft 541 kts 126°
2026-05-06 07:30 33.16186 33.01853 31600 ft 541 kts 126°
2026-05-06 07:30 33.14121 33.05600 30678 ft 542 kts 126°
2026-05-06 07:31 33.12049 33.09356 29954 ft 539 kts 126°
2026-05-06 07:31 33.10003 33.13061 29243 ft 533 kts 126°
2026-05-06 07:31 33.07971 33.16738 28572 ft 528 kts 126°
2026-05-06 07:31 33.05963 33.20368 27929 ft 522 kts 126°
2026-05-06 07:32 33.03971 33.23964 27307 ft 517 kts 126°
2026-05-06 07:32 33.01995 33.27527 26670 ft 512 kts 126°
2026-05-06 07:32 33.00061 33.31010 26055 ft 508 kts 126°
2026-05-06 07:32 32.98097 33.34544 25440 ft 504 kts 126°
2026-05-06 07:33 32.96167 33.38014 24835 ft 500 kts 126°
2026-05-06 07:33 32.94273 33.41415 24224 ft 497 kts 126°
2026-05-06 07:33 32.92364 33.44842 23604 ft 494 kts 126°
2026-05-06 07:33 32.90469 33.48240 22889 ft 491 kts 126°
2026-05-06 07:34 32.88591 33.51605 22256 ft 486 kts 126°
2026-05-06 07:34 32.86729 33.54940 21639 ft 482 kts 126°
2026-05-06 07:34 32.84880 33.58248 21046 ft 477 kts 125°
2026-05-06 07:34 32.83033 33.61484 20450 ft 470 kts 128°
2026-05-06 07:35 32.81007 33.64485 19913 ft 461 kts 135°
2026-05-06 07:35 32.78794 33.67197 19433 ft 453 kts 137°
2026-05-06 07:35 32.76589 33.69860 18922 ft 449 kts 137°
2026-05-06 07:35 32.74419 33.72499 18372 ft 446 kts 137°
2026-05-06 07:36 32.72260 33.75142 17707 ft 444 kts 136°
2026-05-06 07:36 32.70119 33.77776 17018 ft 442 kts 136°
2026-05-06 07:36 32.68016 33.80367 16364 ft 439 kts 136°
2026-05-06 07:36 32.65877 33.83003 15685 ft 435 kts 136°
2026-05-06 07:37 32.63818 33.85539 15038 ft 431 kts 136°
2026-05-06 07:37 32.61741 33.88094 14392 ft 428 kts 136°
2026-05-06 07:37 32.59687 33.90619 13767 ft 424 kts 136°
2026-05-06 07:37 32.57644 33.93127 13057 ft 420 kts 136°
2026-05-06 07:38 32.55624 33.95608 12490 ft 414 kts 136°
2026-05-06 07:38 32.53652 33.98059 11982 ft 407 kts 135°
2026-05-06 07:38 32.51729 34.00465 11536 ft 399 kts 135°
2026-05-06 07:38 32.49837 34.02830 11126 ft 391 kts 135°
2026-05-06 07:39 32.47989 34.05138 10724 ft 383 kts 135°
2026-05-06 07:39 32.46174 34.07400 10435 ft 373 kts 135°
2026-05-06 07:39 32.44402 34.09605 10134 ft 365 kts 135°
2026-05-06 07:39 32.42699 34.11740 9799 ft 357 kts 133°
2026-05-06 07:40 32.41182 34.14071 9444 ft 351 kts 126°
2026-05-06 07:40 32.39878 34.16441 9117 ft 345 kts 124°
2026-05-06 07:40 32.38578 34.18795 8777 ft 338 kts 125°
2026-05-06 07:40 32.37272 34.21074 8427 ft 332 kts 126°
2026-05-06 07:41 32.35981 34.23314 8090 ft 326 kts 126°
2026-05-06 07:41 32.34715 34.25514 7820 ft 319 kts 126°
2026-05-06 07:41 32.33894 34.26943 7658 ft 315 kts 126°
2026-05-06 07:41 32.32665 34.29087 7402 ft 308 kts 125°
2026-05-06 07:42 32.31475 34.31165 7151 ft 302 kts 125°
2026-05-06 07:42 32.30322 34.33180 6897 ft 296 kts 125°
2026-05-06 07:42 32.29176 34.35182 6654 ft 291 kts 125°
2026-05-06 07:42 32.28040 34.37166 6404 ft 286 kts 126°
2026-05-06 07:43 32.26946 34.39077 6131 ft 282 kts 125°
2026-05-06 07:43 32.25855 34.40980 5885 ft 278 kts 125°
2026-05-06 07:43 32.24782 34.42853 5616 ft 274 kts 125°
2026-05-06 07:43 32.23720 34.44704 5355 ft 270 kts 125°
2026-05-06 07:44 32.22672 34.46531 5102 ft 268 kts 125°
2026-05-06 07:44 32.21644 34.48324 5051 ft 262 kts 126°
2026-05-06 07:44 32.20619 34.50110 5001 ft 261 kts 126°
2026-05-06 07:44 32.19607 34.51870 5009 ft 262 kts 126°
2026-05-06 07:45 32.18580 34.53659 4998 ft 263 kts 126°
2026-05-06 07:45 32.17549 34.55450 4995 ft 263 kts 126°
2026-05-06 07:45 32.16524 34.57233 4978 ft 262 kts 125°
2026-05-06 07:45 32.15574 34.59053 4727 ft 259 kts 121°
2026-05-06 07:46 32.14706 34.60826 4478 ft 257 kts 121°
2026-05-06 07:46 32.13819 34.62646 4219 ft 254 kts 121°
2026-05-06 07:46 32.12944 34.64448 3959 ft 252 kts 122°
2026-05-06 07:46 32.12047 34.66180 3686 ft 240 kts 123°
2026-05-06 07:47 32.11204 34.67793 3399 ft 223 kts 123°
2026-05-06 07:47 32.10433 34.69279 3117 ft 211 kts 123°
2026-05-06 07:47 32.09676 34.70740 2886 ft 206 kts 123°
2026-05-06 07:47 32.08941 34.72161 2702 ft 200 kts 123°
2026-05-06 07:48 32.08218 34.73558 2436 ft 198 kts 123°
2026-05-06 07:48 32.07509 34.74930 2211 ft 192 kts 123°
2026-05-06 07:48 32.06842 34.76220 2159 ft 178 kts 124°
2026-05-06 07:48 32.06190 34.77476 1909 ft 177 kts 124°
2026-05-06 07:49 32.05576 34.78665 1691 ft 163 kts 124°
2026-05-06 07:49 32.05011 34.79755 1495 ft 160 kts 124°
2026-05-06 07:49 32.04442 34.80857 1277 ft 158 kts 123°
2026-05-06 07:49 32.03887 34.81965 1017 ft 155 kts 122°
2026-05-06 07:50 32.03334 34.83076 779 ft 157 kts 126°
2026-05-06 07:50 32.02753 34.84140 637 ft 154 kts 126°
2026-05-06 07:50 32.02193 34.85185 475 ft 143 kts 122°
2026-05-06 07:50 32.01688 34.86194 261 ft 146 kts 123°
2026-05-06 07:51 32.01158 34.87184 141 ft 137 kts 122°
2026-05-06 07:51 32.00729 34.88010 120 ft 97 kts 121°
2026-05-06 07:51 32.00474 34.88498 123 ft 40 kts 128°
2026-05-06 07:51 32.00268 34.88670 125 ft 27 kts 157°
2026-05-06 07:52 32.00155 34.88708 120 ft 12 kts 180°
2026-05-06 07:52 32.00102 34.88652 122 ft 11 kts 264°
2026-05-06 07:52 32.00132 34.88571 120 ft 11 kts 302°
2026-05-06 07:52 32.00173 34.88493 120 ft 14 kts 302°
2026-05-06 07:53 32.00237 34.88372 121 ft 18 kts 302°
2026-05-06 07:53 32.00301 34.88248 120 ft 18 kts 302°
2026-05-06 07:53 32.00366 34.88125 122 ft 18 kts 301°
2026-05-06 07:53 32.00429 34.88000 121 ft 18 kts 301°
2026-05-06 07:54 32.00494 34.87876 122 ft 18 kts 302°
2026-05-06 07:54 32.00558 34.87755 122 ft 15 kts 301°
2026-05-06 07:54 32.00600 34.87673 120 ft 11 kts 302°
2026-05-06 07:54 32.00633 34.87600 122 ft 10 kts 284°
2026-05-06 07:55 32.00628 34.87564 122 ft 4 kts 249°
2026-05-06 07:55 32.00616 34.87532 121 ft 4 kts 245°
2026-05-06 07:55 32.00606 34.87508 119 ft 2 kts 244°
2026-05-06 07:55 32.00601 34.87497 120 ft 2 kts 244°